This is the latest recevied weather packets stored in our database for station/object N4YH-13. If no packets are shown the sender has not sent any weather packets the latest 10 day(s).
| Time | Temp. | Humidity | Pressure | Rain* | Wind** | Luminosity | Snow |
|---|---|---|---|---|---|---|---|
| 1776969124 | 25.56° C | 41% | 1015.6 hPa | 0 mm | - | - | - |
| 1776969004 | 25.56° C | 42% | 1016.1 hPa | 0 mm | - | - | - |
| 1776968884 | 25.56° C | 42% | 1016 hPa | 0 mm | - | - | - |
| 1776968763 | 25° C | 42% | 1016 hPa | 0 mm | - | - | - |
| 1776968643 | 25° C | 44% | 1016 hPa | 0 mm | - | - | - |
| 1776968523 | 25° C | 44% | 1016 hPa | 0 mm | - | - | - |
| 1776968403 | 25° C | 44% | 1016 hPa | 0 mm | - | - | - |
| 1776968284 | 25° C | 44% | 1016 hPa | 0 mm | - | - | - |
| 1776968164 | 25° C | 43% | 1016 hPa | 0 mm | - | - | - |
| 1776968044 | 25° C | 45% | 1016.1 hPa | 0 mm | - | - | - |
| 1776967924 | 24.44° C | 46% | 1016.1 hPa | 0 mm | - | - | - |
| 1776967804 | 24.44° C | 43% | 1016.1 hPa | 0 mm | - | - | - |
| 1776967683 | 24.44° C | 45% | 1016.1 hPa | 0 mm | - | - | - |
| 1776967563 | 24.44° C | 47% | 1016.1 hPa | 0 mm | - | - | - |
| 1776967443 | 24.44° C | 47% | 1016.1 hPa | 0 mm | - | - | - |
| 1776967323 | 24.44° C | 46% | 1016.1 hPa | 0 mm | - | - | - |
| 1776967204 | 25° C | 44% | 1016.5 hPa | 0 mm | - | - | - |
| 1776967084 | 25° C | 45% | 1016.5 hPa | 0 mm | - | - | - |
| 1776966964 | 24.44° C | 46% | 1016.5 hPa | 0 mm | - | - | - |
| 1776966843 | 24.44° C | 48% | 1016.6 hPa | 0 mm | - | - | - |
| 1776966723 | 24.44° C | 48% | 1016.4 hPa | 0 mm | - | - | - |
| 1776966603 | 23.89° C | 46% | 1016.4 hPa | 0 mm | - | - | - |
| 1776966483 | 23.89° C | 47% | 1016.6 hPa | 0 mm | - | - | - |
| 1776966364 | 24.44° C | 46% | 1016.5 hPa | 0 mm | - | - | - |
| 1776966244 | 24.44° C | 47% | 1016.9 hPa | 0 mm | - | - | - |
* Rain latest hour (hover to see other rain measurements)
** Current wind speed in m/s (hover to see current wind gust speed)